Rockport, TX

6:36 PM CDT on March 24, 2017 (GMT -0500)
Aransas County

Weather History for KRKP - January, 2013

Change the Weather History Date:

Sunday, January 27, 2013

  Actual Average Record
Temperature  
Mean Temperature 68 °F -  
Max Temperature 73 °F 67 °F 80 °F (2015)
Min Temperature 64 °F 49 °F 27 °F (1966)
Cooling Degree Days 4    
Growing Degree Days 18 (Base 50)    
Moisture  
Dew Point 65 °F    
Average Humidity 90    
Maximum Humidity 100    
Minimum Humidity 78    
Precipitation  
Precipitation 0.00 in - - ()
Sea Level Pressure  
Sea Level Pressure 30.06 in    
Wind  
Wind Speed 9 mph (SE)    
Max Wind Speed 18 mph    
Max Gust Speed 24 mph    
Visibility 8 miles    
Events      
Averages and records for this station are not official NWS values.
T = Trace of Precipitation, MM = Missing Value Source: NWS Daily Summary

Daily Weather History Graph

Daily Weather History Graph

Search for Another Location

Airport or City:

Trip Planner

Search our weather history database for the weather conditions in past years. The results will help you decide how hot, cold, wet, or windy it might be!

Date:

Astronomy

Jan. 27, 2013 Rise Set
Actual Time 7:17 AM CST 6:04 PM CST
Civil Twilight 6:52 AM CST 6:29 PM CST
Nautical Twilight 6:24 AM CST 6:57 PM CST
Astronomical Twilight 5:56 AM CST 7:25 PM CST
Moon 6:50 PM CST (1/27) 7:18 AM CST (1/27)
Length of Visible Light 11h 36m
Length of Day
10h 47m
Full, 100% of the Moon is Illuminated
Jan 27
Full
Feb 3
Last Quarter
Feb 10
New
Feb 17
First Quarter
Feb 25
Full

Hourly Weather History & Observations

Time (CST) Temp. Dew Point Humidity Pressure Visibility Wind Dir Wind Speed Gust Speed Precip Events Conditions
12:53 AM 64.0 °F 61.0 °F 90% 30.10 in 10.0 mi SE 6.9 mph - N/A   Partly Cloudy
1:53 AM 64.9 °F 62.1 °F 90% 30.09 in 10.0 mi ESE 11.5 mph - N/A   Scattered Clouds
2:06 AM 64.4 °F 62.6 °F 94% 30.08 in 10.0 mi North - - N/A   Scattered Clouds
2:53 AM 64.9 °F 63.0 °F 93% 30.07 in 10.0 mi ESE 9.2 mph - N/A   Scattered Clouds
3:32 AM 64.4 °F 64.4 °F 100% 30.06 in 10.0 mi ESE 8.1 mph - N/A   Mostly Cloudy
3:53 AM 64.9 °F 64.0 °F 97% 30.06 in 10.0 mi ESE 8.1 mph - N/A   Mostly Cloudy
4:23 AM 66.2 °F 64.4 °F 94% 30.05 in 10.0 mi ESE 5.8 mph - N/A   Overcast
4:53 AM 66.0 °F 64.9 °F 96% 30.06 in 10.0 mi SE 4.6 mph - N/A   Overcast
5:10 AM 66.2 °F 64.4 °F 94% 30.06 in 9.0 mi SE 5.8 mph - N/A   Overcast
5:35 AM 66.2 °F 64.4 °F 94% 30.06 in 8.0 mi SE 5.8 mph - N/A   Overcast
5:53 AM 66.0 °F 64.9 °F 96% 30.06 in 7.0 mi SE 8.1 mph - N/A   Overcast
6:01 AM 66.2 °F 64.4 °F 94% 30.06 in 7.0 mi SE 6.9 mph - N/A   Overcast
6:31 AM 66.2 °F 64.4 °F 94% 30.06 in 5.0 mi SE 6.9 mph - N/A   Mostly Cloudy
6:48 AM 64.4 °F 64.4 °F 100% 30.07 in 4.0 mi SE 6.9 mph - N/A   Mostly Cloudy
6:53 AM 64.9 °F 64.0 °F 97% 30.08 in 4.0 mi SE 5.8 mph - N/A   Mostly Cloudy
7:30 AM 64.4 °F 64.4 °F 100% 30.08 in 3.0 mi SE 5.8 mph - N/A   Scattered Clouds
7:53 AM 66.0 °F 64.9 °F 96% 30.09 in 4.0 mi SE 6.9 mph - N/A   Mostly Cloudy
8:25 AM 66.2 °F 66.2 °F 100% 30.08 in 5.0 mi SE 6.9 mph - N/A   Overcast
8:53 AM 68.0 °F 66.0 °F 93% 30.09 in 7.0 mi SE 6.9 mph - N/A   Overcast
9:53 AM 72.0 °F 66.9 °F 84% 30.10 in 9.0 mi SE 9.2 mph - N/A   Overcast
10:06 AM 71.6 °F 66.2 °F 83% 30.10 in 9.0 mi SE 10.4 mph - N/A   Overcast
10:19 AM 71.6 °F 66.2 °F 83% 30.09 in 10.0 mi SE 12.7 mph - N/A   Mostly Cloudy
10:26 AM 71.6 °F 66.2 °F 83% 30.10 in 9.0 mi SE 10.4 mph - N/A   Mostly Cloudy
10:53 AM 73.9 °F 66.9 °F 79% 30.10 in 10.0 mi SE 13.8 mph - N/A   Overcast
11:28 AM 73.4 °F 66.2 °F 78% 30.09 in 9.0 mi SE 12.7 mph - N/A   Overcast
11:53 AM 72.0 °F 66.9 °F 84% 30.09 in 9.0 mi SE 12.7 mph - N/A   Overcast
12:03 PM 71.6 °F 66.2 °F 83% 30.07 in 9.0 mi SE 12.7 mph - N/A   Overcast
12:53 PM 72.0 °F 66.9 °F 84% 30.06 in 9.0 mi SSE 11.5 mph 20.7 mph N/A   Overcast
1:53 PM 73.0 °F 66.9 °F 81% 30.03 in 9.0 mi SSE 11.5 mph 20.7 mph N/A   Overcast
2:53 PM 73.0 °F 66.9 °F 81% 30.00 in 8.0 mi SE 18.4 mph 24.2 mph N/A   Scattered Clouds
3:53 PM 72.0 °F 66.9 °F 84% 30.01 in 8.0 mi SSE 15.0 mph - N/A   Clear
4:36 PM 71.6 °F 66.2 °F 83% 30.00 in 8.0 mi SE 13.8 mph 19.6 mph N/A   Scattered Clouds
4:53 PM 71.1 °F 66.9 °F 87% 30.01 in 8.0 mi SSE 11.5 mph 18.4 mph N/A   Scattered Clouds
5:53 PM 69.1 °F 66.0 °F 90% 30.01 in 7.0 mi SE 13.8 mph - N/A   Scattered Clouds
6:53 PM 69.1 °F 66.0 °F 90% 30.02 in 8.0 mi SSE 15.0 mph 19.6 mph N/A   Clear
7:53 PM 68.0 °F 66.0 °F 93% 30.04 in 8.0 mi SSE 11.5 mph - N/A   Scattered Clouds
8:53 PM 68.0 °F 66.0 °F 93% 30.04 in 8.0 mi SE 10.4 mph - N/A   Mostly Cloudy
9:53 PM 68.0 °F 66.0 °F 93% 30.04 in 7.0 mi SE 11.5 mph - N/A   Overcast
10:30 PM 68.0 °F 66.2 °F 94% 30.03 in 6.0 mi SE 10.4 mph - N/A   Overcast
10:53 PM 68.0 °F 66.0 °F 93% 30.05 in 6.0 mi SE 10.4 mph - N/A   Overcast
11:53 PM 68.0 °F 66.0 °F 93% 30.05 in 6.0 mi SE 10.4 mph - N/A   Overcast